CZ-6A DEB, 64650

Orbit data source: Space-Track

CZ-6A DEB, 64650 is space debris in LEO originally from a launch on Tue, 06 Aug 2024 UTC launched from the Taiyaun Space Center, China (TSC). Debris objects in space refer to the collection of defunct objects orbiting the Earth. Examples of debris include non-operational satellites, rocket bodies, and fragments generated from explosions, collisions, or faulty payload assembly.

Loading next visibility...
Identifier
64650, 2024-140AEQ
Orbit
LEO
Country
Flag of CNCN / PRC
Related business
Manufacturer
SAST
Mission
Spacecraft
Bus & Motor
Unknown
Mass
Unknown
Launch date (UTC)
2024-08-06 (2 years ago)
Launch vehicle
Unknown
Launch site
Taiyaun Space Center, China (TSC)
Object type
Payload
Rocket body
Debris
Shape & HBR
Unknown shape, 0.1 m
Radar Cross Section
Small (<0.1 m²)

Expand to show TLE details & history
Last TLE update: 1 day ago

TLE from 1 day ago
0 CZ-6A DEB
1 64650U 24140AEQ 26129.34176467  .00019255  00000-0  18061-2 0  9990
2 64650  88.9423 268.4866 0057434 326.7988  32.9642 14.92645012 85231
Epoch: 2026-05-09T08:12Z
TLE epoch observation values (Epoch: 2026-05-09T08:12:08.467Z)
Latitude
-0.00008°
Longitude
-81.70926°
Altitude
559.333 km
Speed
7.6 km/s
True Right ascension
17h 53m 56s
True Declination
0° 00' 00"
Sunlit
Object was in full shadow at epoch
Visualization orbit readout
Latitude
Unknown
Longitude
Unknown
Altitude
Unknown
Speed
Unknown
Apparent Right ascension
Unknown
Apparent Declination
Unknown
Sunlit
N/A
Visualization observer readout
Local Sidereal Time
20:41:33
Azimuth
Unknown
Elevation
Unknown
Doppler factor
Unknown
Orbital elements
Apogee altitude
626.541 km
Perigee altitude
546.539 km
Semi-major axis
6,964.677 km
Eccentricity
0.00574
Inclination
88.9423°
RAAN
268.4866°
Arg. of periapsis
326.7988°
True anomaly
33.32447°
Mean anomaly
32.9642°
Eccentric anomaly
33.14412°
Mean motion
3.73415 °/min
Orbital period
96.41 mins
BSTAR
0.0018061
Loading maneuver chart data...
Computing Atmospheric mass density...
Loading historical data...
Loading historical data...
Loading historical data...
Loading historical data...
Loading historical data...
Loading historical data...
Loading historical data...

Documentation

Showing up to 5 results
|